datetime,storage
1963-12-13,523.14
1963-12-14,530.38
1963-12-15,537.14
1963-12-16,544.46
1963-12-17,558.69
1963-12-18,569.32
1963-12-19,581.65
1963-12-20,587.58
1963-12-21,596.81
1963-12-22,606.13
1963-12-23,616.1
1963-12-24,625.6
1963-12-25,635.18
1963-12-26,644.85
1963-12-27,655.16
1963-12-28,664.96
1963-12-29,674.81
1963-12-30,685.31
1963-12-31,695.29
1964-01-01,701.77
1964-01-02,707.7
1964-01-03,711.86
1964-01-04,719.03
1964-01-05,725.65
1964-01-06,732.9
1964-01-07,744.48
1964-01-08,750.62
1964-01-09,757.4
1964-01-10,762.36
1964-01-11,767.96
1964-01-12,772.96
1964-01-13,778.61
1964-01-14,783.65
1964-01-15,786.17
1964-01-16,788.7
1964-01-17,792.51
1964-01-18,798.24
1964-01-19,803.35
1964-01-20,809.13
1964-01-21,819.46
1964-01-22,828.56
1964-01-23,837.06
1964-01-24,845.61
1964-01-25,854.22
1964-01-26,862.2
1964-01-27,870.91
1964-01-28,878.98
1964-01-29,885.75
1964-01-30,893.22
1964-01-31,900.05
1964-02-01,908.28
1964-02-02,915.87
1964-02-03,924.18
1964-02-04,926.27
1964-02-05,932.54
1964-02-06,940.94
1964-02-07,947.27
1964-02-08,952.21
1964-02-09,957.87
1964-02-10,962.84
1964-02-11,967.83
1964-02-12,974.28
1964-02-13,978.6
1964-02-14,984.37
1964-02-15,988.72
1964-02-16,993.81
1964-02-17,998.19
1964-02-18,1003.32
1964-02-19,1008.47
1964-02-20,1011.42
1964-02-21,1016.6
1964-02-22,1017.34
1964-02-23,1018.82
1964-02-24,1019.56
1964-02-25,1020.31
1964-02-26,1022.54
1964-02-27,1023.28
1964-02-28,1025.52
1964-02-29,1029.25
1964-03-01,1026.27
1964-03-02,1027.76
1964-03-03,1033.0
1964-03-04,1033.75
1964-03-05,1034.5
1964-03-06,1036.76
1964-03-07,1037.51
1964-03-08,1038.26
1964-03-09,1039.01
1964-03-10,1040.52
1964-03-11,1039.77
1964-03-12,1039.01
1964-03-13,1041.27
1964-03-14,1039.77
1964-03-15,1039.01
1964-03-16,1037.51
1964-03-17,1036.0
1964-03-18,1035.25
1964-03-19,1036.0
1964-03-20,1039.01
1964-03-21,1045.05
1964-03-22,1051.12
1964-03-23,1060.26
1964-03-24,1071.77
1964-03-25,1079.49
1964-03-26,1085.7
1964-03-27,1098.2
1964-03-28,1113.96
1964-03-29,1125.88
1964-03-30,1134.68
1964-03-31,1154.06
1964-04-01,1177.77
1964-04-02,1206.0
1964-04-03,1224.52
1964-04-04,1250.08
1964-04-05,1267.32
1964-04-06,1278.61
1964-04-07,1293.48
1964-04-08,1305.81
1964-04-09,1320.89
1964-04-10,1339.68
1964-04-11,1360.45
1964-04-12,1387.88
1964-04-13,1411.0
1964-04-14,1441.91
1964-04-15,1490.53
1964-04-16,1564.92
1964-04-17,1657.03
1964-04-18,1719.57
1964-04-19,1809.55
1964-04-20,1863.35
1964-04-21,1918.01
1964-04-22,1975.67
1964-04-23,2048.13
1964-04-24,2130.47
1964-04-25,2191.45
1964-04-26,2259.31
1964-04-27,2335.54
1964-04-28,2392.84
1964-04-29,2471.08
1964-04-30,2551.76
1964-05-01,2624.48
1964-05-02,2684.91
1964-05-03,2744.64
1964-05-04,2807.5
1964-05-05,2866.75
1964-05-06,2921.05
1964-05-07,2977.21
1964-05-08,3025.57
1964-05-09,3074.41
1964-05-10,3127.99
1964-05-11,3187.81
1964-05-12,3262.62
1964-05-13,3345.55
1964-05-14,3515.84
1964-05-15,3790.34
1964-05-16,4189.55
1964-05-17,4687.87
1964-05-18,5384.05
1964-05-19,5942.0
1964-05-20,6582.43
1964-05-21,7381.08
1964-05-22,7984.73
1964-05-23,8725.66
1964-05-24,9551.24
1964-05-25,10272.84
1964-05-26,10888.66
1964-05-27,11417.71
1964-05-28,11661.0
1964-05-29,11793.9
1964-05-30,11741.8
1964-05-31,11603.48
1964-06-01,11412.02
1964-06-02,11281.84
1964-06-03,11225.57
1964-06-04,11124.71
1964-06-05,11130.3
1964-06-06,11138.69
1964-06-07,11214.34
1964-06-08,11284.66
1964-06-09,11205.92
1964-06-10,11203.11
1964-06-11,11225.57
1964-06-12,11228.38
1964-06-13,11200.31
1964-06-14,11121.92
1964-06-15,11041.06
1964-06-16,10968.86
1964-06-17,10847.35
1964-06-18,10675.06
1964-06-19,10494.01
1964-06-20,10320.51
1964-06-21,10141.26
1964-06-22,9951.41
1964-06-23,9741.16
1964-06-24,9541.18
1964-06-25,9338.73
1964-06-26,9131.55
1964-06-27,8956.22
1964-06-28,8778.17
1964-06-29,8599.96
1964-06-30,8428.66
1964-07-01,8278.28
1964-07-02,8112.36
1964-07-03,7953.62
1964-07-04,7793.04
1964-07-05,7630.84
1964-07-06,7471.41
1964-07-07,7322.66
1964-07-08,7182.09
1964-07-09,7041.28
1964-07-10,6916.03
1964-07-11,6813.87
1964-07-12,6809.88
1964-07-13,6744.2
1964-07-14,6748.17
1964-07-15,6819.85
1964-07-16,6853.84
1964-07-17,6877.88
1964-07-18,6910.0
1964-07-19,6899.95
1964-07-20,6867.86
1964-07-21,6813.87
1964-07-22,6748.17
1964-07-23,6698.63
1964-07-24,6668.99
1964-07-25,6655.18
1964-07-26,6633.51
1964-07-27,6586.36
1964-07-28,6541.33
1964-07-29,6488.68
1964-07-30,6461.46
1964-07-31,6397.54
1964-08-01,6368.59
1964-08-02,6445.93
1964-08-03,6500.36
1964-08-04,6506.2
1964-08-05,6494.51
1964-08-06,6465.34
1964-08-07,6438.18
1964-08-08,6430.43
1964-08-09,6395.61
1964-08-10,6389.81
1964-08-11,6374.38
1964-08-12,6391.75
1964-08-13,6519.85
1964-08-14,6885.9
1964-08-15,7114.54
1964-08-16,7289.42
1964-08-17,7429.3
1964-08-18,7448.23
1964-08-19,7454.54
1964-08-20,7454.54
1964-08-21,7454.54
1964-08-22,7427.2
1964-08-23,7389.45
1964-08-24,7345.57
1964-08-25,7291.49
1964-08-26,7231.49
1964-08-27,7175.93
1964-08-28,7114.54
1964-08-29,7053.47
1964-08-30,6984.58
1964-08-31,6912.01
1964-09-01,6819.85
1964-09-02,6714.46
1964-09-03,6605.98
1964-09-04,6492.57
1964-09-05,6384.02
1964-09-06,6291.73
1964-09-07,6186.84
1964-09-08,6084.7
1964-09-09,5958.84
1964-09-10,5852.59
1964-09-11,5739.95
1964-09-12,5611.76
1964-09-13,5482.88
1964-09-14,5364.4
1964-09-15,5341.22
1964-09-16,5341.22
1964-09-17,5337.65
1964-09-18,5318.08
1964-09-19,5293.23
1964-09-20,5270.2
1964-09-21,5256.06
1964-09-22,5259.59
1964-09-23,5277.28
1964-09-24,5295.0
1964-09-25,5309.2
1964-09-26,5350.13
1964-09-27,5391.21
1964-09-28,5428.86
1964-09-29,5455.83
1964-09-30,5484.68
1964-10-01,5484.68
1964-10-02,5488.29
1964-10-03,5479.27
1964-10-04,5464.84
1964-10-05,5445.04
1964-10-06,5441.44
1964-10-07,5452.23
1964-10-08,5468.44
1964-10-09,5490.1
1964-10-10,5509.98
1964-10-11,5526.28
1964-10-12,5537.16
1964-10-13,5549.87
1964-10-14,5558.95
1964-10-15,5569.86
1964-10-16,5577.14
1964-10-17,5584.42
1964-10-18,5595.35
1964-10-19,5595.35
1964-10-20,5600.82
1964-10-21,5599.0
1964-10-22,5599.0
1964-10-23,5595.35
1964-10-24,5589.89
1964-10-25,5586.24
1964-10-26,5582.6
1964-10-27,5573.5
1964-10-28,5569.86
1964-10-29,5564.4
1964-10-30,5558.95
1964-10-31,5551.68
1964-11-01,5544.42
1964-11-02,5537.16
1964-11-03,5528.09
1964-11-04,5517.22
1964-11-05,5506.37
1964-11-06,5495.52
1964-11-07,5486.49
1964-11-08,5475.66
1964-11-09,5466.64
1964-11-10,5457.63
1964-11-11,5457.63
1964-11-12,5446.84
1964-11-13,5439.64
1964-11-14,5439.64
1964-11-15,5445.04
1964-11-16,5463.04
1964-11-17,5475.66
1964-11-18,5491.9
1964-11-19,5499.13
1964-11-20,5502.75
1964-11-21,5506.37
1964-11-22,5511.79
1964-11-23,5519.03
1964-11-24,5524.47
1964-11-25,5529.91
1964-11-26,5535.35
1964-11-27,5553.5
1964-11-28,5560.77
1964-11-29,5566.22
1964-11-30,5573.5
1964-12-01,5582.6
1964-12-02,5589.89
1964-12-03,5588.07
1964-12-04,5557.13
1964-12-05,5517.22
1964-12-06,5479.27
1964-12-07,5441.44
1964-12-08,5403.75
1964-12-09,5367.97
1964-12-10,5328.75
1964-12-11,5318.08
1964-12-12,5321.64
1964-12-13,5323.42
1964-12-14,5325.2
1964-12-15,5326.98
1964-12-16,5328.75
1964-12-17,5330.53
1964-12-18,5330.53
1964-12-19,5343.0
1964-12-20,5346.56
1964-12-21,5348.34
1964-12-22,5350.13
1964-12-23,5351.91
1964-12-24,5355.48
1964-12-25,5362.61
1964-12-26,5362.61
1964-12-27,5369.76
1964-12-28,5393.0
1964-12-29,5394.79
1964-12-30,5396.58
1964-12-31,5405.54
1965-01-01,5421.68
1965-01-02,5423.47
1965-01-03,5427.06
1965-01-04,5430.66
1965-01-05,5434.25
1965-01-06,5436.05
1965-01-07,5461.24
1965-01-08,5473.85
1965-01-09,5475.66
1965-01-10,5479.27
1965-01-11,5481.07
1965-01-12,5482.88
1965-01-13,5484.68
1965-01-14,5486.49
1965-01-15,5488.29
1965-01-16,5490.1
1965-01-17,5491.9
1965-01-18,5493.71
1965-01-19,5497.32
1965-01-20,5500.94
1965-01-21,5506.37
1965-01-22,5511.79
1965-01-23,5513.6
1965-01-24,5515.41
1965-01-25,5528.09
1965-01-26,5528.09
1965-01-27,5531.72
1965-01-28,5535.35
1965-01-29,5537.16
1965-01-30,5540.79
1965-01-31,5546.23
1965-02-01,5549.87
1965-02-02,5551.68
1965-02-03,5553.5
1965-02-04,5553.5
1965-02-05,5557.13
1965-02-06,5562.59
1965-02-07,5573.5
1965-02-08,5586.24
1965-02-09,5591.71
1965-02-10,5604.47
1965-02-11,5615.41
1965-02-12,5617.24
1965-02-13,5624.54
1965-02-14,5628.19
1965-02-15,5637.32
1965-02-16,5639.15
1965-02-17,5644.63
1965-02-18,5646.46
1965-02-19,5650.12
1965-02-20,5655.6
1965-02-21,5661.09
1965-02-22,5664.75
1965-02-23,5673.9
1965-02-24,5677.56
1965-02-25,5681.23
1965-02-26,5686.72
1965-02-27,5692.22
1965-02-28,5701.39
1965-03-01,5706.89
1965-03-02,5717.9
1965-03-03,5725.25
1965-03-04,5730.76
1965-03-05,5736.27
1965-03-06,5739.95
1965-03-07,5745.46
1965-03-08,5750.98
1965-03-09,5756.5
1965-03-10,5762.02
1965-03-11,5765.7
1965-03-12,5774.92
1965-03-13,5784.13
1965-03-14,5789.67
1965-03-15,5791.51
1965-03-16,5800.75
1965-03-17,5806.29
1965-03-18,5809.99
1965-03-19,5813.68
1965-03-20,5813.68
1965-03-21,5817.38
1965-03-22,5821.08
1965-03-23,5826.64
1965-03-24,5841.46
1965-03-25,5852.59
1965-03-26,5856.3
1965-03-27,5863.72
1965-03-28,5869.3
1965-03-29,5878.59
1965-03-30,5886.03
1965-03-31,5899.07
1965-04-01,5925.18
1965-04-02,5956.97
1965-04-03,5983.19
1965-04-04,6007.57
1965-04-05,6031.99
1965-04-06,6052.68
1965-04-07,6079.04
1965-04-08,6103.56
1965-04-09,6131.89
1965-04-10,6164.07
1965-04-11,6188.73
1965-04-12,6205.84
1965-04-13,6226.78
1965-04-14,6249.67
1965-04-15,6270.68
1965-04-16,6301.31
1965-04-17,6345.49
1965-04-18,6420.75
1965-04-19,6512.05
1965-04-20,6653.21
1965-04-21,6875.87
1965-04-22,7287.35
1965-04-23,7803.96
1965-04-24,8417.0
1965-04-25,9026.59
1965-04-26,9594.1
1965-04-27,10044.7
1965-04-28,10381.66
1965-04-29,10669.62
1965-04-30,10955.0
1965-05-01,11290.3
1965-05-02,11727.35
1965-05-03,12276.08
1965-05-04,12841.85
1965-05-05,13374.58
1965-05-06,13834.37
1965-05-07,14230.82
1965-05-08,14581.15
1965-05-09,14891.97
1965-05-10,15189.68
1965-05-11,15459.07
1965-05-12,15735.5
1965-05-13,16078.47
1965-05-14,16426.27
1965-05-15,16770.77
1965-05-16,17069.36
1965-05-17,17398.2
1965-05-18,17793.72
1965-05-19,18315.62
1965-05-20,19066.04
1965-05-21,20045.46
1965-05-22,21216.88
1965-05-23,22305.9
1965-05-24,23125.94
1965-05-25,23768.53
1965-05-26,24193.78
1965-05-27,24261.86
1965-05-28,24271.6
1965-05-29,24257.0
1965-05-30,24305.69
1965-05-31,24442.36
1965-06-01,24771.3
1965-06-02,25197.46
1965-06-03,25723.79
1965-06-04,26384.61
1965-06-05,26993.06
1965-06-06,27698.33
1965-06-07,28648.53
1965-06-08,29591.43
1965-06-09,30614.19
1965-06-10,31295.24
1965-06-11,31713.49
1965-06-12,32004.79
1965-06-13,32409.92
1965-06-14,33186.52
1965-06-15,34114.52
1965-06-16,34960.34
1965-06-17,35217.3
1965-06-18,35763.55
1965-06-19,36260.07
1965-06-20,36813.68
1965-06-21,36873.49
1965-06-22,36981.28
1965-06-23,37071.26
1965-06-24,37698.64
1965-06-25,37674.41
1965-06-26,37360.09
1965-06-27,37523.13
1965-06-28,38038.76
1965-06-29,38692.96
1965-06-30,39327.41
1965-07-01,39321.22
1965-07-02,39129.82
1965-07-03,38766.65
1965-07-04,38453.86
1965-07-05,38105.75
1965-07-06,37704.7
1965-07-07,37753.2
1965-07-08,37807.79
1965-07-09,37644.12
1965-07-10,37716.82
1965-07-11,37710.76
1965-07-12,37898.88
1965-07-13,37613.86
1965-07-14,37119.3
1965-07-15,36604.82
1965-07-16,36159.34
1965-07-17,35586.91
1965-07-18,35030.33
1965-07-19,34646.3
1965-07-20,34791.51
1965-07-21,34972.0
1965-07-22,35205.6
1965-07-23,35528.11
1965-07-24,35822.5
1965-07-25,36147.5
1965-07-26,36491.7
1965-07-27,36831.62
1965-07-28,36987.27
1965-07-29,37686.52
1965-07-30,38551.87
1965-07-31,38957.29
1965-08-01,38957.29
1965-08-02,38871.15
1965-08-03,38778.94
1965-08-04,38527.36
1965-08-05,38270.44
1965-08-06,37965.74
1965-08-07,37583.6
1965-08-08,37173.4
1965-08-09,36837.6
1965-08-10,36497.65
1965-08-11,36277.86
1965-08-12,36011.45
1965-08-13,35739.97
1965-08-14,35440.0
1965-08-15,35158.82
1965-08-16,34907.9
1965-08-17,34675.32
1965-08-18,34512.99
1965-08-19,34518.78
1965-08-20,34403.06
1965-08-21,34229.82
1965-08-22,34051.18
1965-08-23,33844.21
1965-08-24,33683.59
1965-08-25,33488.97
1965-08-26,33294.82
1965-08-27,33078.37
1965-08-28,32913.57
1965-08-29,32686.82
1965-08-30,32590.65
1965-08-31,32432.49
1965-09-01,32235.24
1965-09-02,32105.88
1965-09-03,31971.12
1965-09-04,31819.8
1965-09-05,31618.49
1965-09-06,31467.85
1965-09-07,31362.01
1965-09-08,31256.32
1965-09-09,31256.32
1965-09-10,31289.68
1965-09-11,31300.81
1965-09-12,31300.81
1965-09-13,31284.12
1965-09-14,31245.2
1965-09-15,31167.43
1965-09-16,31084.19
1965-09-17,30989.96
1965-09-18,30945.66
1965-09-19,30978.88
1965-09-20,31023.21
1965-09-21,31050.92
1965-09-22,31067.55
1965-09-23,31128.58
1965-09-24,31217.42
1965-09-25,31362.01
1965-09-26,31534.76
1965-09-27,31769.42
1965-09-28,32044.09
1965-09-29,32302.81
1965-09-30,32534.12
1965-10-01,32720.79
1965-10-02,32896.54
1965-10-03,33066.99
1965-10-04,33243.5
1965-10-05,33408.97
1965-10-06,33551.88
1965-10-07,33632.02
1965-10-08,33529.0
1965-10-09,33414.68
1965-10-10,33391.84
1965-10-11,33369.0
1965-10-12,33357.58
1965-10-13,33346.16
1965-10-14,33329.04
1965-10-15,33277.71
1965-10-16,33272.01
1965-10-17,33249.2
1965-10-18,33215.0
1965-10-19,33158.05
1965-10-20,33101.12
1965-10-21,33044.24
1965-10-22,32981.72
1965-10-23,32930.6
1965-10-24,32885.19
1965-10-25,32839.81
1965-10-26,32805.79
1965-10-27,32760.44
1965-10-28,32720.79
1965-10-29,32669.84
1965-10-30,32618.92
1965-10-31,32556.73
1965-11-01,32494.58
1965-11-02,32438.13
1965-11-03,32370.44
1965-11-04,32291.54
1965-11-05,32218.35
1965-11-06,32145.23
1965-11-07,32055.32
1965-11-08,31971.12
1965-11-09,31892.62
1965-11-10,31797.41
1965-11-11,31719.08
1965-11-12,31691.12
1965-11-13,31674.36
1965-11-14,31652.0
1965-11-15,31624.07
1965-11-16,31607.32
1965-11-17,31584.99
1965-11-18,31568.24
1965-11-19,31534.76
1965-11-20,31506.87
1965-11-21,31473.42
1965-11-22,31428.84
1965-11-23,31428.84
1965-11-24,31423.27
1965-11-25,31434.41
1965-11-26,31428.84
1965-11-27,31384.28
1965-11-28,31350.88
1965-11-29,31306.37
1965-11-30,31273.0
1965-12-01,31217.42
1965-12-02,31184.09
1965-12-03,31139.68
1965-12-04,31095.28
1965-12-05,31050.92
1965-12-06,31006.58
1965-12-07,30956.73
1965-12-08,30912.45
1965-12-09,30868.19
1965-12-10,30851.6
1965-12-11,30846.07
1965-12-12,30796.32
1965-12-13,30763.17
1965-12-14,30719.0
1965-12-15,30696.92
1965-12-16,30658.3
1965-12-17,30608.68
1965-12-18,30570.11
1965-12-19,30526.04
1965-12-20,30460.0
1965-12-21,30405.01
1965-12-22,30372.04
1965-12-23,30372.04
1965-12-24,30366.55
1965-12-25,30333.6
1965-12-26,30267.76
1965-12-27,30223.9
1965-12-28,30174.6
1965-12-29,30108.93
1965-12-30,30130.81
1965-12-31,30097.99
1966-01-01,30059.73
1966-01-02,30010.56
1966-01-03,29961.44
1966-01-04,29945.07
1966-01-05,29841.52
1966-01-06,29808.85
1966-01-07,29710.93
1966-01-08,29656.59
1966-01-09,29602.28
1966-01-10,29542.6
1966-01-11,29482.96
1966-01-12,29428.78
1966-01-13,29374.64
1966-01-14,29298.92
1966-01-15,29244.9
1966-01-16,29180.14
1966-01-17,29126.22
1966-01-18,29066.97
1966-01-19,29013.16
1966-01-20,28975.53
1966-01-21,28954.03
1966-01-22,28948.66
1966-01-23,28889.59
1966-01-24,28825.22
1966-01-25,28782.35
1966-01-26,28718.08
1966-01-27,28648.53
1966-01-28,28589.73
1966-01-29,28525.64
1966-01-30,28461.61
1966-01-31,28402.97
1966-02-01,28360.34
1966-02-02,28307.11
1966-02-03,28280.5
1966-02-04,28269.86
1966-02-05,28275.18
1966-02-06,28280.5
1966-02-07,28296.46
1966-02-08,28333.72
1966-02-09,28371.0
1966-02-10,28386.98
1966-02-11,28392.31
1966-02-12,28392.31
1966-02-13,28402.97
1966-02-14,28408.3
1966-02-15,28418.96
1966-02-16,28424.29
1966-02-17,28429.62
1966-02-18,28434.95
1966-02-19,28434.95
1966-02-20,28440.28
1966-02-21,28445.61
1966-02-22,28445.61
1966-02-23,28450.94
1966-02-24,28450.94
1966-02-25,28450.94
1966-02-26,28461.61
1966-02-27,28461.61
1966-02-28,28466.95
1966-03-01,28466.95
1966-03-02,28493.62
1966-03-03,28498.96
1966-03-04,28498.96
1966-03-05,28498.96
1966-03-06,28498.96
1966-03-07,28498.96
1966-03-08,28504.29
1966-03-09,28504.29
1966-03-10,28509.63
1966-03-11,28509.63
1966-03-12,28520.3
1966-03-13,28525.64
1966-03-14,28557.68
1966-03-15,28589.73
1966-03-16,28632.49
1966-03-17,28680.62
1966-03-18,28712.73
1966-03-19,28766.28
1966-03-20,28819.86
1966-03-21,28873.49
1966-03-22,28921.8
1966-03-23,28975.53
1966-03-24,29034.68
1966-03-25,29088.51
1966-03-26,29142.39
1966-03-27,29228.7
1966-03-28,29309.74
1966-03-29,29396.29
1966-03-30,29493.8
1966-03-31,29613.14
1966-04-01,29765.32
1966-04-02,29955.98
1966-04-03,30158.18
1966-04-04,30355.56
1966-04-05,30526.04
1966-04-06,30691.4
1966-04-07,30846.07
1966-04-08,31023.21
1966-04-09,31206.31
1966-04-10,31400.99
1966-04-11,31618.49
1966-04-12,31808.6
1966-04-13,31993.57
1966-04-14,32167.72
1966-04-15,32325.35
1966-04-16,32494.58
1966-04-17,32686.82
1966-04-18,32924.93
1966-04-19,33158.05
1966-04-20,33357.58
1966-04-21,33546.16
1966-04-22,33786.8
1966-04-23,33976.38
1966-04-24,34131.81
1966-04-25,34310.62
1966-04-26,34507.2
1966-04-27,34715.96
1966-04-28,34942.86
1966-04-29,35176.36
1966-04-30,35387.19
1966-05-01,35645.74
1966-05-02,35922.83
1966-05-03,36206.73
1966-05-04,36592.91
1966-05-05,36957.31
1966-05-06,37402.33
1966-05-07,37704.7
1966-05-08,37917.11
1966-05-09,37886.72
1966-05-10,37917.11
1966-05-11,37735.01
1966-05-12,37613.86
1966-05-13,37462.7
1966-05-14,37275.71
1966-05-15,36993.27
1966-05-16,36789.78
1966-05-17,36759.91
1966-05-18,37029.25
1966-05-19,37329.94
1966-05-20,37674.41
1966-05-21,37674.41
1966-05-22,37474.78
1966-05-23,37625.96
1966-05-24,37838.14
1966-05-25,37874.58
1966-05-26,37862.43
1966-05-27,37807.79
1966-05-28,37813.86
1966-05-29,37759.26
1966-05-30,37880.65
1966-05-31,38258.23
1966-06-01,38221.61
1966-06-02,38154.51
1966-06-03,38075.29
1966-06-04,37965.74
1966-06-05,37819.93
1966-06-06,37747.13
1966-06-07,37886.72
1966-06-08,37965.74
1966-06-09,38014.41
1966-06-10,38069.2
1966-06-11,38136.22
1966-06-12,38252.12
1966-06-13,38404.91
1966-06-14,38564.13
1966-06-15,38680.68
1966-06-16,38711.38
1966-06-17,38711.38
1966-06-18,38686.82
1966-06-19,38625.45
1966-06-20,38564.13
1966-06-21,38539.61
1966-06-22,38496.72
1966-06-23,38404.91
1966-06-24,38246.02
1966-06-25,38050.93
1966-06-26,37838.14
1966-06-27,37632.02
1966-06-28,37402.33
1966-06-29,37149.35
1966-06-30,37005.26
1966-07-01,37059.25
1966-07-02,37005.26
1966-07-03,36837.6
1966-07-04,36622.7
1966-07-05,36384.7
1966-07-06,36106.07
1966-07-07,35822.5
1966-07-08,35522.23
1966-07-09,35193.9
1966-07-10,34861.32
1966-07-11,34565.13
1966-07-12,34206.74
1966-07-13,33844.21
1966-07-14,33500.4
1966-07-15,33163.74
1966-07-16,32873.85
1966-07-17,32579.34
1966-07-18,32297.18
1966-07-19,32021.63
1966-07-20,31825.4
1966-07-21,31652.0
1966-07-22,31473.42
1966-07-23,31261.88
1966-07-24,31023.21
1966-07-25,30774.22
1966-07-26,30564.6
1966-07-27,30322.62
1966-07-28,30070.66
1966-07-29,29836.07
1966-07-30,29710.93
1966-07-31,29602.28
1966-08-01,29477.54
1966-08-02,29363.82
1966-08-03,29439.61
1966-08-04,29596.85
1966-08-05,29683.75
1966-08-06,29705.49
1966-08-07,29678.32
1966-08-08,29640.29
1966-08-09,29564.29
1966-08-10,29472.12
1966-08-11,29363.82
1966-08-12,29250.3
1966-08-13,29126.22
1966-08-14,28997.03
1966-08-15,28857.4
1966-08-16,28734.15
1966-08-17,28595.08
1966-08-18,28482.95
1966-08-19,28349.69
1966-08-20,28200.76
1966-08-21,28057.5
1966-08-22,27898.76
1966-08-23,27745.73
1966-08-24,27577.42
1966-08-25,27414.95
1966-08-26,27242.63
1966-08-27,27070.92
1966-08-28,26889.41
1966-08-29,26703.34
1966-08-30,26517.99
1966-08-31,26353.89
1966-09-01,26185.3
1966-09-02,25997.06
1966-09-03,25804.58
1966-09-04,25618.0
1966-09-05,25427.23
1966-09-06,25257.28
1966-09-07,25073.12
1966-09-08,24894.72
1966-09-09,24722.03
1966-09-10,24545.17
1966-09-11,24408.15
1966-09-12,24257.0
1966-09-13,24130.67
1966-09-14,24009.58
1966-09-15,23937.11
1966-09-16,23879.23
1966-09-17,23840.69
1966-09-18,23792.57
1966-09-19,23734.9
1966-09-20,23672.53
1966-09-21,23648.58
1966-09-22,23586.37
1966-09-23,23509.98
1966-09-24,23443.28
1966-09-25,23357.72
1966-09-26,23281.86
1966-09-27,23196.73
1966-09-28,23107.08
1966-09-29,23012.95
1966-09-30,22919.06
1966-10-01,22816.05
1966-10-02,22708.69
1966-10-03,22620.27
1966-10-04,22532.11
1966-10-05,22453.44
1966-10-06,22379.58
1966-10-07,22296.7
1966-10-08,22227.81
1966-10-09,22159.08
1966-10-10,22081.38
1966-10-11,22012.98
1966-10-12,21953.83
1966-10-13,21885.73
1966-10-14,21813.25
1966-10-15,21736.42
1966-10-16,21664.27
1966-10-17,21587.77
1966-10-18,21511.45
1966-10-19,21430.83
1966-10-20,21350.41
1966-10-21,21270.21
1966-10-22,21159.21
1966-10-23,21044.23
1966-10-24,20938.51
1966-10-25,20846.3
1966-10-26,20763.11
1966-10-27,20680.13
1966-10-28,20558.24
1966-10-29,20540.86
1966-10-30,20523.5
1966-10-31,20532.18
1966-11-01,20540.86
1966-11-02,20540.86
1966-11-03,20549.55
1966-11-04,20558.24
1966-11-05,20562.58
1966-11-06,20566.93
1966-11-07,20575.62
1966-11-08,20610.42
1966-11-09,20671.41
1966-11-10,20680.13
1966-11-11,20693.22
1966-11-12,20710.67
1966-11-13,20723.77
1966-11-14,20732.51
1966-11-15,20745.62
1966-11-16,20758.73
1966-11-17,20776.23
1966-11-18,20784.98
1966-11-19,20793.73
1966-11-20,20802.49
1966-11-21,20815.63
1966-11-22,20828.77
1966-11-23,20841.92
1966-11-24,20850.69
1966-11-25,20859.46
1966-11-26,20868.23
1966-11-27,20872.62
1966-11-28,20877.01
1966-11-29,20885.79
1966-11-30,20894.57
1966-12-01,20850.69
1966-12-02,20802.49
1966-12-03,20758.73
1966-12-04,20736.88
1966-12-05,20697.58
1966-12-06,20736.88
1966-12-07,20898.96
1966-12-08,20925.32
1966-12-09,20947.3
1966-12-10,20951.7
1966-12-11,20960.5
1966-12-12,20973.7
1966-12-13,20982.51
1966-12-14,20991.32
1966-12-15,21004.54
1966-12-16,21008.94
1966-12-17,21013.35
1966-12-18,21022.17
1966-12-19,21026.58
1966-12-20,21035.4
1966-12-21,21039.81
1966-12-22,21048.64
1966-12-23,21048.64
1966-12-24,21048.64
1966-12-25,21048.64
1966-12-26,21066.3
1966-12-27,21097.24
1966-12-28,21106.08
1966-12-29,21106.08
1966-12-30,21110.5
1966-12-31,21114.93
1967-01-01,21123.78
1967-01-02,21123.78
1967-01-03,21123.78
1967-01-04,21123.78
1967-01-05,21123.78
1967-01-06,21128.21
1967-01-07,21132.63
1967-01-08,21132.63
1967-01-09,21132.63
1967-01-10,21132.63
1967-01-11,21132.63
1967-01-12,21137.06
1967-01-13,21137.06
1967-01-14,21137.06
1967-01-15,21137.06
1967-01-16,21137.06
1967-01-17,21137.06
1967-01-18,21137.06
1967-01-19,21137.06
1967-01-20,21137.06
1967-01-21,21141.49
1967-01-22,21145.92
1967-01-23,21145.92
1967-01-24,21163.64
1967-01-25,21185.81
1967-01-26,21194.68
1967-01-27,21199.12
1967-01-28,21199.12
1967-01-29,21203.56
1967-01-30,21208.0
1967-01-31,21225.76
1967-02-01,21234.65
1967-02-02,21239.09
1967-02-03,21243.53
1967-02-04,21243.53
1967-02-05,21247.98
1967-02-06,21252.42
1967-02-07,21256.87
1967-02-08,21261.32
1967-02-09,21265.77
1967-02-10,21265.77
1967-02-11,21274.66
1967-02-12,21279.11
1967-02-13,21279.11
1967-02-14,21283.57
1967-02-15,21288.02
1967-02-16,21292.47
1967-02-17,21292.47
1967-02-18,21292.47
1967-02-19,21292.47
1967-02-20,21296.92
1967-02-21,21301.38
1967-02-22,21305.83
1967-02-23,21305.83
1967-02-24,21305.83
1967-02-25,21314.74
1967-02-26,21323.65
1967-02-27,21328.11
1967-02-28,21332.57
1967-03-01,21337.03
1967-03-02,21345.95
1967-03-03,21359.33
1967-03-04,21372.73
1967-03-05,21386.13
1967-03-06,21408.47
1967-03-07,21417.41
1967-03-08,21426.36
1967-03-09,21444.25
1967-03-10,21453.21
1967-03-11,21475.6
1967-03-12,21489.04
1967-03-13,21502.49
1967-03-14,21515.94
1967-03-15,21529.4
1967-03-16,21542.86
1967-03-17,21565.31
1967-03-18,21592.27
1967-03-19,21623.75
1967-03-20,21650.76
1967-03-21,21682.29
1967-03-22,21713.86
1967-03-23,21749.97
1967-03-24,21790.64
1967-03-25,21840.41
1967-03-26,21881.19
1967-03-27,21931.11
1967-03-28,21972.02
1967-03-29,22017.53
1967-03-30,22063.12
1967-03-31,22099.64
1967-04-01,22140.78
1967-04-02,22172.81
1967-04-03,22214.05
1967-04-04,22259.94
1967-04-05,22310.5
1967-04-06,22351.93
1967-04-07,22402.64
1967-04-08,22453.44
1967-04-09,22513.58
1967-04-10,22578.48
1967-04-11,22638.86
1967-04-12,22690.05
1967-04-13,22741.33
1967-04-14,22788.01
1967-04-15,22839.44
1967-04-16,22886.25
1967-04-17,22928.44
1967-04-18,22998.85
1967-04-19,23036.46
1967-04-20,23074.11
1967-04-21,23130.65
1967-04-22,23144.8
1967-04-23,23130.65
1967-04-24,23111.8
1967-04-25,23064.69
1967-04-26,22998.85
1967-04-27,22975.36
1967-04-28,22975.36